DMSP 5D-2 F13 DEB

Satellite information

Favourite Embed

Satellite Type and Status

DEBRISIN ORBIT

Key statistics

Satellite DMSP 5D-2 F13 DEB at a glance.

Uptime

11001

Days in orbit

Revolutions

≈ 14.4

Per day

Orbit

SSO

Sun Synchronous Orbit

Inclination

98.7

Latest

Satellite identification and parameters

Extended collection of information and parameters for DMSP 5D-2 F13 DEB.

Object identification

Identified? True

Debris? True

Object name: DMSP 5D-2 F13 DEB

International designator: 1995-015JT

Object number (NORAD): 42325

Object ID (CCSDS): 42325

Country: UNITED STATES OF AMERICA (US)

Current information (Y/N): Y

RCS size: SMALL

Orbital parameters

Period: 100.175 minutes

Inclination: 98.7278 deg

SMA: 7144.969 km

Apoapsis: 773.19 km

Periapsis: 760.479 km

RAAN: 160.2177 deg

Eccentricy: 0.0008895

Argument of periapsis: 263.4654 deg

Mean anomaly: 96.5519 deg

Mean motion: 14.37481303 rev/day

Mean motion (dot): 0.00008536 rev/day2

B* drag term: 0.0028626 1/REarth

Two-line elements (TLE)

Creation date: May 6, 2025, 3:54 a.m.

Reference frame: TEME

Reference center: EARTH

Epoch: May 5, 2025, 7:23 p.m. UTC

TLE line 0: 0 DMSP 5D-2 F13 DEB

TLE line 1: 1 42325U 95015JT 25125.80815307 .00008536 00000-0 28626-2 0 9991

TLE line 2: 2 42325 98.7278 160.2177 0008895 263.4654 96.5519 14.37481303494122

Live tracking on map

Real-time ground track for satellite DMSP 5D-2 F13 DEB.

In-orbit conjunctions

A list of the most updated potential collisions computed for object DMSP 5D-2 F13 DEB.

Target Orbit TCA Probability of collision Miss distance Type
SL-8 R/B LEO 2025-04-04 16:34:04 0.0001915256 824.0 (m) ROCKET BODY
CZ-6A DEB LEO 2024-11-20 02:34:08 0.0002671985 553.0 (m) DEBRIS
COSMOS 1125 LEO 2024-11-09 20:03:42 0.0001912014 520.0 (m) PAYLOAD

Associated space launch

Military meteorological satellite

DMSP 5D-2 F13 DEB was lifted into orbit during the mission ‘Atlas E | DMSP-5D2 F13’, on board a Atlas E space rocket.

The launch took place on March 24, 1995, 2:05 p.m. from Space Launch Complex 3W.

For more information about the launch, click the button.

Launch to space Atlas E | DMSP-5D2 F13
Atlas E | DMSP-5D2 F13

Agency: N/A

Status: Launch Successful

Launch date: March 24, 1995, 2:05 p.m. UTC

Rocket: Atlas E

Launch pad: Space Launch Complex 3W

Location: Vandenberg SFB, CA, USA

...

Latest news about this satellite

There are no fresh news available about this satellite. Check back as we update our databases every day.


Newsletter sign-up

Weekly statistics, charts and insights to help you stay on top of the space industry.